Regional Weather Roundup
Issued by NWS

Home | Current Version | Previous Version | Graphics & Text | Print | Product List | Glossary On
Versions: 1 2 3 4 5 6 7 8 9 10 11 12 13 14 15 16 17 18 19 20 21 22 23 24 25 26 27 28 29 30 31 32 33 34 35 36 37 38 39 40 41 42 43 44 45 46 47 48 49 50
656
ASUS45 KBOU 081307
RWRCO

WEATHER ROUNDUP FOR COLORADO
NATIONAL WEATHER SERVICE DENVER/BOULDER CO
600 AM MST THU DEC 08 2016

NOTE: "FAIR" INDICATES FEW OR NO CLOUDS BELOW 12000 FEET WITH NO
SIGNIFICANT WEATHER AND/OR OBSTRUCTIONS TO VISIBILITY.

COZ001>005-013-030-031-081400-
...NORTHWEST COLORADO...

CITY           SKY/WX    TMP DP  RH WIND       PRES   REMARKS
CRAIG          FAIR      -6 -13  71 W3        30.30S
HAYDEN         FAIR      -4 -11  71 E12       30.27R WCI -22
MEEKER         FAIR      -1  -5  82 CALM      30.28R
MOUNT WERNER   NOT AVBL
STEAMBOAT SPGS FAIR     -11 -15  80 CALM      30.27R
WALDEN           N/A    -20 -27  69 CALM      30.21R
$$

COZ006>008-011-081400-
...WEST CENTRAL VALLEYS...

CITY           SKY/WX    TMP DP  RH WIND       PRES   REMARKS
GRAND JUNCTION FAIR      18   7  62 SE7       30.33R WCI   9
MONTROSE       CLOUDY    14   7  73 SE3       30.33F
EAGLE          FAIR      -2  -8  76 CALM      30.37R
RIFLE          MOCLDY    10   3  73 CALM      30.34S
DELTA          FAIR      17   4  56 NE5       30.35R WCI  10
NUCLA          MOCLDY    10   1  67 CALM      30.33R
$$

COZ017>023-064>068-081400-
...SOUTHWEST COLORADO...

CITY           SKY/WX    TMP DP  RH WIND       PRES   REMARKS
DURANGO        FAIR       8  -2  63 CALM      30.26S
CORTEZ         MOCLDY    10   5  80 CALM      30.27S
PAGOSA SPRINGS FAIR       3  -3  75 CALM      30.25S
TELLURIDE      CLOUDY    13  -7  40 CALM      30.17R
WOLF CREEK PAS FAIR       1 -17  42 S15G21    30.13S WCI -18
$$

COZ009-010-012-014-032>034-037-058>063-081400-
...CENTRAL COLORADO...

CITY           SKY/WX    TMP DP  RH WIND       PRES   REMARKS
ASPEN          CLOUDY     2  -4  76 CALM      30.20R
BUENA VISTA    CLOUDY     1  -8  64 NW6       30.22S WCI -10
COPPER MTN     CLOUDY     7 -29  17 MISG      30.01R
BERTHOUD PASS  CLOUDY    -6 -18  54 NW20G26   29.95R WCI -29
COTTONWOOD PAS CLOUDY     5   0  78 E3        30.09R
GUNNISON       CLOUDY    -1  -8  72 CALM      30.30R
KREMMLING      CLOUDY   N/A N/A N/A CALM      30.32S FOG
LEADVILLE      CLOUDY    -6 -12  75 CALM      30.08R
MONARCH PASS   CLOUDY     1 -15  46 W30       30.13R WCI -24
SALIDA         MOCLDY     6   1  80 CALM      30.32S
SUNLIGHT       CLOUDY     1  -2  85 SW13G18   30.12R WCI -16
WILKERSON PASS CLOUDY     0  -9  65 SW13      30.05R WCI -18
$$

COZ069>075-081400-
...SAN LUIS VALLEY/SANGRE DE CRISTO MOUNTAINS...

CITY           SKY/WX    TMP DP  RH WIND       PRES   REMARKS
ALAMOSA        MOCLDY    -7 -12  79 CALM      30.25R
LA VETA PASS   FAIR       5   1  85 NE21G31   30.09S WCI -16
SAGUACHE       FAIR       3  -6  66 NW9       30.24R WCI -11
$$

COZ035-036-038>040-081400-
...NORTHERN COLORADO FRONT RANGE...

CITY           SKY/WX    TMP DP  RH WIND       PRES   REMARKS
DENVER INTL AP FAIR      -8 -12  83 SW3       30.37S
DMNS CITY PARK   N/A      2  -2  83 S5        30.39R WCI  -8
AURORA         PTCLDY    -2  -6  84 S5        30.36R WCI -12
FRONT RANGE AP NOT AVBL
ERIE MUNI ARPT CLOUDY     2  -1  85 CALM      30.41R
BOULDER MUN AP CLOUDY     5   1  85 CALM      30.39R
CENTENNIAL     FAIR      -1  -6  79 CALM      30.34R
BROOMFIELD     CLOUDY     7   3  85 N3        30.36S
FORT COLLINS   FAIR      -8 -11  84 N3        30.42S
LONGMONT       CLOUDY     5  -1  78 CALM      30.44R
$$

COZ041-046-047-076>085-087-088-081400-
...PIKES PEAK/PALMER DIVIDE AND SOUTHERN FOOTHILLS...

CITY           SKY/WX    TMP DP  RH WIND       PRES   REMARKS
COLO. SPRINGS  LGT SNOW   7   3  84 S3        30.33S FOG
A. F. ACADEMY  FLURRIES   5   1  83 S3        30.29R
SCHRIEVER AFB  NOT AVBL
ELLICOTT       LGT SNOW N/A N/A N/A SW5         N/A
FALCON         LGT SNOW   5   2  87 SW6       30.29R WCI  -6
FORT CARSON    FLURRIES   7   3  85 CALM      30.34R
LIMON          FAIR     -15 -19  82 CALM      30.40R
MONUMENT HILL  FAIR       1  -2  85 SW3       30.26R
TRINIDAD       LGT SNOW  11   7  84 CALM      30.37R FOG
$$

COZ042>045-048>051-090-091-081400-
...NORTHEAST COLORADO...

CITY           SKY/WX    TMP DP  RH WIND       PRES   REMARKS
GREELEY ARPT   FAIR     -14 -19  79 NW6       30.47S WCI -28
AKRON          FAIR      -7 -12  79 W10       30.44R WCI -25
BURLINGTON     FAIR      -2 -11  65 NW9       30.49R WCI -18
WRAY           NOT AVBL
STERLING       FAIR     -15 -18  84 CALM      30.50S
HOLYOKE        FAIR       0  -8  71 NW7       30.53R WCI -13
FORT MORGAN    FAIR     -12 -17  79 W7        30.48R WCI -27
$$

COZ086-089-092>099-081400-
...SOUTHEAST COLORADO...

CITY           SKY/WX    TMP DP  RH WIND       PRES   REMARKS
PUEBLO         CLOUDY    15   8  73 S8        30.44R WCI   4
LA JUNTA       FAIR      11   4  73 SE3       30.50R
LAMAR          FAIR      -2  -7  79 CALM      30.53R
SPRINGFIELD      N/A     -1  -5  82 W6        30.48R WCI -13
$$




USA.gov is the U.S. government's official web portal to all federal, state and local government web resources and services.